Location: Arrodets-la-Barthe
(43.0306°N, 0.2829°E)
Time: 15:39:25
(UTC+00:00)

X-37B - Pass Details

Date: 24 October 2021
Orbit: 330 x 341 km, 45.0° (Epoch: 20 November)

Event Time Altitude Azimuth Distance (km) Brightness Sun altitude
Rises 19:13:16 0° 283° (WNW) 2,126 5.7 -24.6°
Reaches altitude 10° 19:15:25 10° 271° (W) 1,284 4.2 -25.0°
Enters shadow 19:16:30 18° 256° (WSW) 926 3.2 -25.2°
